Time,TemperatureF,DewpointF,PressureIn,WindDirection,WindDirectionDegrees,WindSpeedMPH,WindSpeedGustMPH,Humidity,HourlyPrecipIn,Conditions,Clouds,dailyrainin,SoftwareType,DateUTC
2013-02-18 00:02:00,37.0,21.0,30.12,SE,124,0.0,13.0,53,0.00,,,0.00,,2013-02-18 06:02:00,
2013-02-18 00:11:00,37.0,21.0,30.12,SE,124,0.0,13.0,53,0.00,,,0.00,,2013-02-18 06:11:00,
2013-02-18 00:21:00,37.0,21.0,30.12,SE,124,0.0,13.0,53,0.00,,,0.00,,2013-02-18 06:21:00,
2013-02-18 00:32:00,37.0,22.0,30.12,SE,131,2.0,9.0,54,0.00,,,0.00,,2013-02-18 06:32:00,
2013-02-18 00:41:00,37.0,22.0,30.12,SE,131,2.0,9.0,54,0.00,,,0.00,,2013-02-18 06:41:00,
2013-02-18 00:51:00,37.0,22.0,30.11,SE,136,2.0,10.0,54,0.00,,,0.00,,2013-02-18 06:51:00,
2013-02-18 01:01:00,37.0,22.0,30.11,SE,142,0.0,0.0,54,0.00,,,0.00,,2013-02-18 07:01:00,
2013-02-18 01:11:00,37.0,22.0,30.11,SE,142,0.0,0.0,54,0.00,,,0.00,,2013-02-18 07:11:00,
2013-02-18 01:22:00,37.0,22.0,30.11,SSE,154,0.0,0.0,54,0.00,,,0.00,,2013-02-18 07:22:00,
2013-02-18 01:32:00,37.0,22.0,30.10,SSE,168,5.0,8.0,54,0.00,,,0.00,,2013-02-18 07:32:00,
2013-02-18 01:42:00,37.0,22.0,30.10,SSE,168,5.0,8.0,54,0.00,,,0.00,,2013-02-18 07:42:00,
2013-02-18 01:51:00,37.0,22.0,30.09,SSE,168,0.0,0.0,55,0.00,,,0.00,,2013-02-18 07:51:00,
2013-02-18 02:01:00,37.0,22.0,30.09,SSE,163,0.0,9.0,55,0.00,,,0.00,,2013-02-18 08:01:00,
2013-02-18 02:11:00,37.0,22.0,30.09,SSE,163,0.0,9.0,55,0.00,,,0.00,,2013-02-18 08:11:00,
2013-02-18 02:21:00,37.0,23.0,30.08,SSE,147,4.0,11.0,56,0.00,,,0.00,,2013-02-18 08:21:00,
2013-02-18 02:32:00,37.0,23.0,30.09,SE,136,2.0,7.0,56,0.00,,,0.00,,2013-02-18 08:32:00,
2013-02-18 02:42:00,37.0,23.0,30.09,SE,136,2.0,7.0,56,0.00,,,0.00,,2013-02-18 08:42:00,
2013-02-18 02:52:00,37.0,23.0,30.08,SE,134,5.0,9.0,57,0.00,,,0.00,,2013-02-18 08:52:00,
2013-02-18 03:02:00,37.0,23.0,30.07,ESE,116,6.0,11.0,57,0.00,,,0.00,,2013-02-18 09:02:00,
2013-02-18 03:11:00,37.0,23.0,30.07,ESE,116,6.0,11.0,57,0.00,,,0.00,,2013-02-18 09:11:00,
2013-02-18 03:22:00,37.0,24.0,30.06,SSE,152,1.0,10.0,58,0.00,,,0.00,,2013-02-18 09:22:00,
2013-02-18 03:32:00,36.0,23.0,30.06,SSE,158,3.0,10.0,59,0.00,,,0.00,,2013-02-18 09:32:00,
2013-02-18 03:42:00,36.0,23.0,30.06,SSE,158,3.0,10.0,59,0.00,,,0.00,,2013-02-18 09:42:00,
2013-02-18 03:51:00,36.0,23.0,30.06,ESE,123,6.0,11.0,59,0.00,,,0.00,,2013-02-18 09:51:00,
2013-02-18 04:01:00,36.0,23.0,30.06,SE,138,4.0,8.0,60,0.00,,,0.00,,2013-02-18 10:01:00,
2013-02-18 04:11:00,36.0,23.0,30.06,SE,138,4.0,8.0,60,0.00,,,0.00,,2013-02-18 10:11:00,
2013-02-18 04:21:00,37.0,25.0,30.05,SSE,161,0.0,11.0,61,0.00,,,0.00,,2013-02-18 10:21:00,
2013-02-18 04:31:00,37.0,24.0,30.06,SSE,161,1.0,9.0,60,0.00,,,0.00,,2013-02-18 10:31:00,
2013-02-18 04:42:00,37.0,24.0,30.06,SSE,161,1.0,9.0,60,0.00,,,0.00,,2013-02-18 10:42:00,
2013-02-18 04:52:00,37.0,25.0,30.06,SE,140,5.0,11.0,61,0.00,,,0.00,,2013-02-18 10:52:00,
2013-02-18 05:01:00,37.0,25.0,30.06,SE,146,4.0,9.0,61,0.00,,,0.00,,2013-02-18 11:01:00,
2013-02-18 05:11:00,37.0,25.0,30.06,SE,146,4.0,9.0,61,0.00,,,0.00,,2013-02-18 11:11:00,
2013-02-18 05:22:00,37.0,25.0,30.05,SE,137,0.0,5.0,62,0.00,,,0.00,,2013-02-18 11:22:00,
2013-02-18 05:32:00,37.0,26.0,30.05,SE,140,1.0,10.0,63,0.00,,,0.00,,2013-02-18 11:32:00,
2013-02-18 05:42:00,37.0,26.0,30.05,SE,140,1.0,10.0,63,0.00,,,0.00,,2013-02-18 11:42:00,
2013-02-18 05:52:00,37.0,26.0,30.05,SSE,154,0.0,8.0,64,0.00,,,0.00,,2013-02-18 11:52:00,
2013-02-18 06:02:00,38.0,27.0,30.04,SSE,148,1.0,11.0,65,0.00,,,0.00,,2013-02-18 12:02:00,
2013-02-18 06:11:00,38.0,27.0,30.04,SSE,148,1.0,11.0,65,0.00,,,0.00,,2013-02-18 12:11:00,
2013-02-18 06:22:00,38.0,28.0,30.04,SSE,163,0.0,8.0,66,0.00,,,0.00,,2013-02-18 12:22:00,
2013-02-18 06:32:00,38.0,28.0,30.04,South,171,3.0,12.0,66,0.00,,,0.00,,2013-02-18 12:32:00,
2013-02-18 06:42:00,38.0,28.0,30.04,South,171,3.0,12.0,66,0.00,,,0.00,,2013-02-18 12:42:00,
2013-02-18 06:52:00,38.0,28.0,30.03,South,185,5.0,9.0,68,0.00,,,0.00,,2013-02-18 12:52:00,
2013-02-18 07:03:00,38.0,29.0,30.03,South,175,0.0,10.0,70,0.00,,,0.00,,2013-02-18 13:03:00,
2013-02-18 07:12:00,38.0,29.0,30.03,South,175,0.0,10.0,70,0.00,,,0.00,,2013-02-18 13:12:00,
2013-02-18 07:22:00,39.0,30.0,30.03,South,169,6.0,11.0,71,0.00,,,0.00,,2013-02-18 13:22:00,
2013-02-18 07:32:00,40.0,31.0,30.03,SSE,153,6.0,11.0,70,0.00,,,0.00,,2013-02-18 13:32:00,
2013-02-18 07:42:00,40.0,31.0,30.03,SSE,153,6.0,11.0,70,0.00,,,0.00,,2013-02-18 13:42:00,
2013-02-18 07:53:00,40.0,31.0,30.03,South,187,2.0,9.0,71,0.00,,,0.00,,2013-02-18 13:53:00,
2013-02-18 08:02:00,40.0,32.0,30.03,SSE,165,5.0,13.0,72,0.00,,,0.00,,2013-02-18 14:02:00,
2013-02-18 08:11:00,40.0,32.0,30.03,SSE,165,5.0,13.0,72,0.00,,,0.00,,2013-02-18 14:11:00,
2013-02-18 08:22:00,41.0,33.0,30.03,SSE,163,2.0,11.0,72,0.00,,,0.00,,2013-02-18 14:22:00,
2013-02-18 08:33:00,42.0,34.0,30.03,ESE,106,1.0,9.0,73,0.00,,,0.00,,2013-02-18 14:33:00,
2013-02-18 08:53:00,43.0,35.0,30.03,South,176,5.0,12.0,73,0.00,,,0.00,,2013-02-18 14:53:00,
2013-02-18 09:02:00,45.0,37.0,30.02,SSE,154,9.0,14.0,73,0.00,,,0.00,,2013-02-18 15:02:00,
2013-02-18 09:11:00,45.0,37.0,30.02,SSE,154,9.0,14.0,73,0.00,,,0.00,,2013-02-18 15:11:00,
2013-02-18 09:22:00,46.0,38.0,30.01,SSW,192,8.0,16.0,73,0.00,,,0.00,,2013-02-18 15:22:00,
2013-02-18 09:32:00,47.0,39.0,30.01,South,188,8.0,14.0,73,0.00,,,0.00,,2013-02-18 15:32:00,
2013-02-18 09:42:00,47.0,39.0,30.01,South,188,8.0,14.0,73,0.00,,,0.00,,2013-02-18 15:42:00,
2013-02-18 09:52:00,48.0,40.0,30.00,South,176,9.0,17.0,73,0.00,,,0.00,,2013-02-18 15:52:00,
2013-02-18 10:03:00,49.0,41.0,29.99,SSW,192,9.0,15.0,73,0.00,,,0.00,,2013-02-18 16:03:00,
2013-02-18 10:12:00,49.0,41.0,29.99,SSW,192,9.0,15.0,73,0.00,,,0.00,,2013-02-18 16:12:00,
2013-02-18 10:22:00,49.0,40.0,29.98,South,175,8.0,18.0,72,0.00,,,0.00,,2013-02-18 16:22:00,
2013-02-18 10:32:00,50.0,41.0,29.98,South,185,10.0,21.0,70,0.00,,,0.00,,2013-02-18 16:32:00,
2013-02-18 10:42:00,50.0,41.0,29.98,South,185,10.0,21.0,70,0.00,,,0.00,,2013-02-18 16:42:00,
2013-02-18 10:52:00,50.0,41.0,29.97,SSW,192,9.0,21.0,71,0.00,,,0.00,,2013-02-18 16:52:00,
2013-02-18 11:03:00,52.0,42.0,29.97,SSW,201,9.0,18.0,69,0.00,,,0.00,,2013-02-18 17:03:00,
2013-02-18 11:22:00,52.0,42.0,29.97,SSW,200,10.0,19.0,69,0.00,,,0.00,,2013-02-18 17:22:00,
2013-02-18 11:32:00,54.0,43.0,29.96,SSE,147,10.0,20.0,66,0.00,,,0.00,,2013-02-18 17:32:00,
2013-02-18 11:42:00,54.0,43.0,29.96,SSE,147,10.0,20.0,66,0.00,,,0.00,,2013-02-18 17:42:00,
2013-02-18 11:52:00,55.0,43.0,29.96,SSE,167,12.0,23.0,64,0.00,,,0.00,,2013-02-18 17:52:00,
2013-02-18 12:02:00,55.0,42.0,29.95,SSW,201,19.0,26.0,62,0.00,,,0.00,,2013-02-18 18:02:00,
2013-02-18 12:12:00,55.0,42.0,29.95,SSW,201,19.0,26.0,62,0.00,,,0.00,,2013-02-18 18:12:00,
2013-02-18 12:22:00,56.0,42.0,29.93,SSW,202,19.0,25.0,59,0.00,,,0.00,,2013-02-18 18:22:00,
2013-02-18 12:32:00,57.0,42.0,29.93,South,187,17.0,26.0,57,0.00,,,0.00,,2013-02-18 18:32:00,
2013-02-18 12:42:00,57.0,42.0,29.93,South,187,17.0,26.0,57,0.00,,,0.00,,2013-02-18 18:42:00,
2013-02-18 12:52:00,58.0,41.0,29.92,South,184,13.0,24.0,53,0.00,,,0.00,,2013-02-18 18:52:00,
2013-02-18 13:03:00,57.0,41.0,29.91,SSW,194,16.0,23.0,54,0.00,,,0.00,,2013-02-18 19:03:00,
2013-02-18 13:12:00,57.0,41.0,29.91,SSW,194,16.0,23.0,54,0.00,,,0.00,,2013-02-18 19:12:00,
2013-02-18 13:22:00,56.0,39.0,29.90,South,169,12.0,23.0,52,0.00,,,0.00,,2013-02-18 19:22:00,
2013-02-18 13:33:00,57.0,38.0,29.88,South,185,12.0,22.0,49,0.00,,,0.00,,2013-02-18 19:33:00,
2013-02-18 13:42:00,57.0,38.0,29.88,South,185,12.0,22.0,49,0.00,,,0.00,,2013-02-18 19:42:00,
2013-02-18 13:52:00,58.0,38.0,29.86,South,170,8.0,17.0,47,0.00,,,0.00,,2013-02-18 19:52:00,
2013-02-18 14:02:00,57.0,36.0,29.86,SSW,201,15.0,26.0,45,0.00,,,0.00,,2013-02-18 20:02:00,
2013-02-18 14:12:00,57.0,36.0,29.86,SSW,201,15.0,26.0,45,0.00,,,0.00,,2013-02-18 20:12:00,
2013-02-18 14:23:00,57.0,36.0,29.86,South,183,12.0,19.0,46,0.00,,,0.00,,2013-02-18 20:23:00,
2013-02-18 14:33:00,56.0,36.0,29.86,SSW,207,15.0,22.0,46,0.00,,,0.00,,2013-02-18 20:33:00,
2013-02-18 14:42:00,56.0,36.0,29.86,SSW,207,15.0,22.0,46,0.00,,,0.00,,2013-02-18 20:42:00,
2013-02-18 14:52:00,56.0,36.0,29.86,SSW,198,16.0,26.0,47,0.00,,,0.00,,2013-02-18 20:52:00,
2013-02-18 15:03:00,56.0,37.0,29.85,SSW,202,12.0,25.0,48,0.00,,,0.00,,2013-02-18 21:03:00,
2013-02-18 15:12:00,56.0,37.0,29.85,SSW,202,12.0,25.0,48,0.00,,,0.00,,2013-02-18 21:12:00,
2013-02-18 15:22:00,53.0,40.0,29.84,South,185,20.0,26.0,62,0.00,,,0.00,,2013-02-18 21:22:00,
2013-02-18 15:32:00,50.0,41.0,29.85,South,174,15.0,25.0,72,0.00,,,0.00,,2013-02-18 21:32:00,
2013-02-18 15:42:00,50.0,41.0,29.85,South,174,15.0,25.0,72,0.00,,,0.00,,2013-02-18 21:42:00,
2013-02-18 15:52:00,50.0,41.0,29.84,South,171,8.0,20.0,72,0.00,,,0.00,,2013-02-18 21:52:00,
2013-02-18 16:02:00,50.0,41.0,29.84,South,171,8.0,20.0,72,0.00,,,0.00,,2013-02-18 22:02:00,
2013-02-18 16:12:00,49.0,43.0,29.82,South,186,0.0,7.0,80,0.02,,,0.02,,2013-02-18 22:12:00,
2013-02-18 16:22:00,49.0,43.0,29.82,South,186,0.0,7.0,80,0.02,,,0.02,,2013-02-18 22:22:00,
2013-02-18 16:33:00,50.0,43.0,29.82,SSW,200,8.0,15.0,78,0.02,,,0.02,,2013-02-18 22:33:00,
2013-02-18 16:43:00,50.0,43.0,29.82,SSW,200,8.0,15.0,78,0.02,,,0.02,,2013-02-18 22:43:00,
2013-02-18 16:52:00,50.0,43.0,29.80,SSE,155,9.0,16.0,77,0.03,,,0.03,,2013-02-18 22:52:00,
2013-02-18 17:02:00,51.0,43.0,29.78,South,169,8.0,14.0,74,0.01,,,0.03,,2013-02-18 23:02:00,
2013-02-18 17:12:00,51.0,43.0,29.78,South,169,8.0,14.0,74,0.01,,,0.03,,2013-02-18 23:12:00,
2013-02-18 17:22:00,51.0,43.0,29.77,East,94,10.0,22.0,75,0.02,,,0.04,,2013-02-18 23:22:00,
2013-02-18 17:33:00,50.0,43.0,29.76,South,175,10.0,23.0,78,0.02,,,0.04,,2013-02-18 23:33:00,
2013-02-18 17:42:00,50.0,43.0,29.76,South,175,10.0,23.0,78,0.02,,,0.04,,2013-02-18 23:42:00,
2013-02-18 17:52:00,50.0,44.0,29.76,SSW,198,10.0,23.0,79,0.01,,,0.04,,2013-02-18 23:52:00,
2013-02-18 18:12:00,49.0,44.0,29.76,SSW,192,11.0,20.0,82,0.03,,,0.06,,2013-02-19 00:12:00,
2013-02-18 18:22:00,48.0,44.0,29.75,ESE,115,7.0,16.0,86,0.03,,,0.07,,2013-02-19 00:22:00,
2013-02-18 18:34:00,48.0,44.0,29.75,South,169,12.0,24.0,87,0.04,,,0.08,,2013-02-19 00:34:00,
2013-02-18 18:43:00,48.0,44.0,29.75,South,169,12.0,24.0,87,0.04,,,0.08,,2013-02-19 00:43:00,
2013-02-18 18:53:00,48.0,44.0,29.74,SE,144,10.0,21.0,87,0.08,,,0.12,,2013-02-19 00:53:00,
2013-02-18 19:03:00,48.0,44.0,29.74,SE,144,10.0,21.0,87,0.08,,,0.12,,2013-02-19 01:03:00,
2013-02-18 19:14:00,48.0,44.0,29.74,SE,144,10.0,21.0,87,0.08,,,0.12,,2013-02-19 01:14:00,
2013-02-18 19:24:00,47.0,44.0,29.75,SE,134,5.0,16.0,90,0.18,,,0.25,,2013-02-19 01:24:00,
2013-02-18 19:34:00,47.0,45.0,29.72,South,171,7.0,17.0,91,0.21,,,0.28,,2013-02-19 01:34:00,
2013-02-18 19:43:00,47.0,45.0,29.72,South,171,7.0,17.0,91,0.21,,,0.28,,2013-02-19 01:43:00,
2013-02-18 19:53:00,47.0,45.0,29.72,SE,136,6.0,14.0,91,0.17,,,0.30,,2013-02-19 01:53:00,
2013-02-18 20:03:00,47.0,44.0,29.71,SSE,161,7.0,14.0,90,0.12,,,0.31,,2013-02-19 02:03:00,
2013-02-18 20:13:00,47.0,44.0,29.71,SSE,161,7.0,14.0,90,0.12,,,0.31,,2013-02-19 02:13:00,
2013-02-18 20:23:00,47.0,44.0,29.71,SSE,159,8.0,17.0,90,0.07,,,0.32,,2013-02-19 02:23:00,
2013-02-18 20:34:00,47.0,44.0,29.71,South,180,12.0,23.0,90,0.09,,,0.39,,2013-02-19 02:34:00,
2013-02-18 20:42:00,47.0,44.0,29.71,South,180,12.0,23.0,90,0.09,,,0.39,,2013-02-19 02:42:00,
2013-02-18 20:53:00,47.0,45.0,29.72,SSW,196,13.0,20.0,92,0.17,,,0.47,,2013-02-19 02:53:00,
2013-02-18 21:06:00,47.0,45.0,29.75,WNW,284,0.0,13.0,92,0.23,,,0.54,,2013-02-19 03:06:00,
2013-02-18 21:14:00,47.0,45.0,29.75,WNW,284,0.0,13.0,92,0.23,,,0.54,,2013-02-19 03:14:00,
2013-02-18 21:23:00,47.0,45.0,29.74,SSW,205,0.0,3.0,93,0.31,,,0.63,,2013-02-19 03:23:00,
2013-02-18 21:34:00,47.0,45.0,29.74,SSW,205,0.0,3.0,93,0.31,,,0.63,,2013-02-19 03:34:00,
2013-02-18 21:44:00,47.0,45.0,29.74,SSW,205,0.0,3.0,93,0.31,,,0.63,,2013-02-19 03:44:00,
2013-02-18 21:53:00,47.0,45.0,29.71,South,184,8.0,13.0,94,0.19,,,0.66,,2013-02-19 03:53:00,
2013-02-18 22:02:00,47.0,45.0,29.72,South,187,12.0,20.0,93,0.13,,,0.67,,2013-02-19 04:02:00,
2013-02-18 22:14:00,47.0,45.0,29.72,South,187,12.0,20.0,93,0.13,,,0.67,,2013-02-19 04:14:00,
2013-02-18 22:23:00,48.0,46.0,29.71,SSW,200,12.0,15.0,92,0.05,,,0.68,,2013-02-19 04:23:00,
2013-02-18 22:33:00,48.0,46.0,29.73,SSW,208,10.0,17.0,92,0.02,,,0.68,,2013-02-19 04:33:00,
2013-02-18 22:43:00,48.0,46.0,29.73,SSW,208,10.0,17.0,92,0.02,,,0.68,,2013-02-19 04:43:00,
2013-02-18 23:02:00,43.0,41.0,29.79,WNW,286,10.0,20.0,91,0.03,,,0.70,,2013-02-19 05:02:00,
2013-02-18 23:12:00,43.0,41.0,29.79,WNW,286,10.0,20.0,91,0.03,,,0.70,,2013-02-19 05:12:00,
2013-02-18 23:22:00,43.0,41.0,29.79,WNW,286,10.0,20.0,91,0.03,,,0.70,,2013-02-19 05:22:00,
2013-02-18 23:32:00,40.0,37.0,29.82,WSW,254,10.0,17.0,89,0.02,,,0.70,,2013-02-19 05:32:00,
2013-02-18 23:43:00,40.0,37.0,29.82,WSW,254,10.0,17.0,89,0.02,,,0.70,,2013-02-19 05:43:00,
2013-02-18 23:52:00,40.0,37.0,29.83,WNW,288,9.0,17.0,88,0.00,,,0.70,,2013-02-19 05:52:00,